Weather History for Big Rapids, MI

Change the Weather History Date:

Thursday, June 26, 2014

  Actual Average Record
Temperature  
Mean Temperature 68 °F -  
Max Temperature 75 °F 81 °F 96 °F (1983)
Min Temperature 60 °F 55 °F 39 °F (2004)
Cooling Degree Days 2    
Growing Degree Days 18 (Base 50)    
Moisture  
Dew Point 62 °F    
Average Humidity 81    
Maximum Humidity 100    
Minimum Humidity 57    
Precipitation  
Precipitation 0.00 in - - ()
Sea Level Pressure  
Sea Level Pressure 30.07 in    
Wind  
Wind Speed 1 mph (SE)    
Max Wind Speed 8 mph    
Max Gust Speed -    
Visibility 10 miles    
Events      
Averages and records for this station are not official NWS values.
T = Trace of Precipitation, MM = Missing Value Source: NWS Daily Summary

Daily Weather History Graph

Daily Weather History Graph

Search for Another Location

Airport:

Trip Planner

Search our weather history database for the weather conditions in past years. The results will help you decide how hot, cold, wet, or windy it might be!

Date:

Astronomy

Jun. 26, 2014 Rise Set
Actual Time 6:01 AM EDT 9:27 PM EDT
Civil Twilight 5:25 AM EDT 10:03 PM EDT
Nautical Twilight 4:38 AM EDT 10:51 PM EDT
Astronomical Twilight 3:38 AM EDT 11:50 PM EDT
Moon 5:43 AM EDT (6/26) 8:45 PM EDT (6/26)
Length of Visible Light 16h 38m
Length of Day
15h 26m
Waning Crescent, 0% of the Moon is Illuminated
Jun 26
Waning Crescent
Jun 27
New
Jul 5
First Quarter
Jul 12
Full
Jul 18
Last Quarter

Hourly Weather History & Observations

Time (EDT) Temp. Dew Point Humidity Pressure Visibility Wind Dir Wind Speed Gust Speed Precip Events Conditions
12:15 AM 64.4 °F 64.4 °F 100% 30.04 in 10.0 mi Calm Calm - N/A   Overcast
12:35 AM 64.0 °F 64.0 °F 100% 30.04 in 10.0 mi Calm Calm - N/A   Overcast
1:15 AM 63.1 °F 63.1 °F 100% 30.04 in 7.0 mi Calm Calm - N/A   Overcast
1:34 AM 63.0 °F 63.0 °F 100% 30.05 in 7.0 mi Calm Calm - N/A   Overcast
1:55 AM 63.7 °F 63.7 °F 100% 30.05 in 10.0 mi Calm Calm - N/A   Overcast
2:15 AM 63.5 °F 63.5 °F 100% 30.06 in 10.0 mi SE 5.8 mph - N/A   Overcast
2:34 AM 63.0 °F 63.0 °F 100% 30.06 in 10.0 mi SSE 3.5 mph - N/A   Overcast
2:55 AM 62.4 °F 62.4 °F 100% 30.06 in 10.0 mi Calm Calm - N/A   Scattered Clouds
3:15 AM 61.9 °F 61.7 °F 99% 30.06 in 10.0 mi Calm Calm - N/A   Clear
3:34 AM 60.4 °F 60.4 °F 100% 30.06 in 10.0 mi Calm Calm - N/A   Mostly Cloudy
3:55 AM 61.0 °F 61.0 °F 100% 30.06 in 10.0 mi Calm Calm - N/A   Overcast
4:15 AM 60.8 °F 60.8 °F 100% 30.06 in 10.0 mi Calm Calm - N/A   Overcast
4:34 AM 60.8 °F 60.8 °F 100% 30.06 in 10.0 mi Calm Calm - N/A   Overcast
4:55 AM 60.8 °F 60.8 °F 100% 30.06 in 7.0 mi Calm Calm - N/A   Overcast
5:15 AM 60.8 °F 60.8 °F 100% 30.07 in 7.0 mi Calm Calm - N/A   Overcast
5:34 AM 60.8 °F 60.8 °F 100% 30.07 in 7.0 mi Calm Calm - N/A   Overcast
5:55 AM 60.4 °F 60.4 °F 100% 30.07 in 10.0 mi Calm Calm - N/A   Overcast
6:15 AM 60.8 °F 60.8 °F 100% 30.07 in 10.0 mi Calm Calm - N/A   Overcast
6:34 AM 60.8 °F 60.8 °F 100% 30.07 in 10.0 mi Calm Calm - N/A   Overcast
6:55 AM 61.2 °F 61.2 °F 100% 30.08 in 10.0 mi Calm Calm - N/A   Overcast
7:15 AM 61.3 °F 61.3 °F 100% 30.08 in 10.0 mi Calm Calm - N/A   Mostly Cloudy
7:34 AM 61.7 °F 61.2 °F 98% 30.09 in 10.0 mi Calm Calm - N/A   Mostly Cloudy
7:55 AM 62.1 °F 61.2 °F 97% 30.09 in 10.0 mi Calm Calm - N/A   Overcast
8:15 AM 62.6 °F 61.5 °F 96% 30.09 in 10.0 mi ESE 5.8 mph - N/A   Overcast
8:34 AM 62.8 °F 60.8 °F 93% 30.09 in 10.0 mi Calm Calm - N/A   Overcast
8:55 AM 63.5 °F 61.9 °F 94% 30.09 in 10.0 mi Calm Calm - N/A   Overcast
9:15 AM 64.8 °F 62.2 °F 92% 30.09 in 10.0 mi East 3.5 mph - N/A   Overcast
9:34 AM 66.7 °F 63.1 °F 88% 30.09 in 10.0 mi Calm Calm - N/A   Overcast
9:55 AM 66.6 °F 63.3 °F 89% 30.09 in 10.0 mi Calm Calm - N/A   Overcast
10:14 AM 67.3 °F 62.4 °F 84% 30.09 in 10.0 mi Calm Calm - N/A   Overcast
10:35 AM 68.5 °F 63.9 °F 85% 30.09 in 10.0 mi Calm Calm - N/A   Overcast
10:55 AM 71.6 °F 63.9 °F 76% 30.09 in 10.0 mi Calm Calm - N/A   Overcast
11:14 AM 69.4 °F 60.4 °F 73% 30.09 in 10.0 mi Calm Calm - N/A   Overcast
11:35 AM 69.4 °F 60.6 °F 73% 30.09 in 10.0 mi Calm Calm - N/A   Mostly Cloudy
11:55 AM 70.0 °F 61.0 °F 73% 30.09 in 10.0 mi Calm Calm - N/A   Mostly Cloudy
12:14 PM 72.0 °F 60.6 °F 67% 30.08 in 10.0 mi Calm Calm - N/A   Mostly Cloudy
12:35 PM 74.3 °F 61.2 °F 63% 30.08 in 10.0 mi NW 4.6 mph - N/A   Scattered Clouds
12:55 PM 72.7 °F 60.8 °F 66% 30.07 in 10.0 mi NW 3.5 mph - N/A   Mostly Cloudy
1:14 PM 72.5 °F 60.8 °F 67% 30.08 in 10.0 mi Calm Calm - N/A   Overcast
1:35 PM 73.4 °F 61.0 °F 65% 30.07 in 10.0 mi Calm Calm - N/A   Mostly Cloudy
1:55 PM 74.3 °F 60.4 °F 62% 30.07 in 10.0 mi Calm Calm - N/A   Mostly Cloudy
2:14 PM 75.7 °F 59.7 °F 57% 30.07 in 10.0 mi WNW 3.5 mph - N/A   Overcast
2:35 PM 74.5 °F 61.0 °F 63% 30.07 in 10.0 mi SSW 4.6 mph - N/A   Overcast
2:55 PM 74.3 °F 61.0 °F 63% 30.06 in 10.0 mi SW 4.6 mph - N/A   Overcast
3:14 PM 74.3 °F 60.8 °F 63% 30.06 in 10.0 mi SSW 3.5 mph - N/A   Overcast
3:35 PM 74.3 °F 60.1 °F 61% 30.06 in 10.0 mi SSW 3.5 mph - N/A   Overcast
3:55 PM 75.2 °F 60.6 °F 60% 30.06 in 10.0 mi Calm Calm - N/A   Overcast
4:35 PM 75.2 °F 59.7 °F 58% 30.06 in 10.0 mi NW 4.6 mph - N/A   Mostly Cloudy
4:55 PM 75.4 °F 59.5 °F 58% 30.06 in 10.0 mi Calm Calm - N/A   Overcast
5:14 PM 75.9 °F 60.3 °F 58% 30.05 in 10.0 mi Calm Calm - N/A   Overcast
5:35 PM 75.0 °F 62.4 °F 65% 30.05 in 10.0 mi East 8.1 mph - N/A   Overcast
5:55 PM 73.9 °F 61.9 °F 66% 30.05 in 10.0 mi East 6.9 mph - N/A   Mostly Cloudy
6:14 PM 74.8 °F 61.7 °F 64% 30.04 in 10.0 mi ESE 5.8 mph - N/A   Scattered Clouds
6:35 PM 74.7 °F 61.2 °F 63% 30.04 in 10.0 mi SE 4.6 mph - N/A   Mostly Cloudy
6:55 PM 74.8 °F 61.0 °F 62% 30.04 in 10.0 mi East 5.8 mph - N/A   Scattered Clouds
7:14 PM 74.8 °F 60.6 °F 61% 30.03 in 10.0 mi East 4.6 mph - N/A   Scattered Clouds
7:35 PM 75.0 °F 61.5 °F 63% 30.03 in 10.0 mi East 5.8 mph - N/A   Scattered Clouds
7:55 PM 74.3 °F 61.2 °F 63% 30.03 in 10.0 mi East 4.6 mph - N/A   Overcast
8:14 PM 73.4 °F 61.5 °F 66% 30.04 in 10.0 mi East 4.6 mph - N/A   Overcast
8:35 PM 72.7 °F 61.9 °F 69% 30.04 in 10.0 mi East 4.6 mph - N/A   Overcast
8:55 PM 72.1 °F 62.2 °F 71% 30.04 in 10.0 mi East 3.5 mph - N/A   Overcast
9:14 PM 71.4 °F 63.0 °F 75% 30.04 in 10.0 mi SE 4.6 mph - N/A   Overcast
9:35 PM 71.2 °F 62.4 °F 74% 30.04 in 10.0 mi South 5.8 mph - N/A   Overcast
9:55 PM 70.5 °F 63.9 °F 79% 30.05 in 10.0 mi Calm Calm - N/A   Overcast
10:35 PM 69.6 °F 61.3 °F 75% 30.07 in 10.0 mi South 5.8 mph - N/A   Mostly Cloudy
10:55 PM 68.9 °F 61.3 °F 77% 30.08 in 10.0 mi South 6.9 mph - N/A   Mostly Cloudy
11:14 PM 67.8 °F 61.2 °F 79% 30.08 in 10.0 mi South 6.9 mph - N/A   Mostly Cloudy
11:35 PM 66.9 °F 61.3 °F 82% 30.08 in 10.0 mi Calm Calm - N/A   Scattered Clouds
11:55 PM 65.7 °F 60.3 °F 83% 30.09 in 10.0 mi Calm Calm - N/A   Clear